Regional Weather Roundup
Issued by NWS

Home | Current Version | Previous Version | Graphics & Text | Print | Product List | Glossary On
Versions: 1 2 3 4 5 6 7 8 9 10 11 12 13 14 15 16 17 18 19 20 21 22 23 24 25 26 27 28 29 30 31 32 33 34 35 36 37 38 39 40 41 42 43 44 45 46 47 48 49 50
000
ASUS43 KDTX 192301
RWRMI
MICHIGAN HOURLY REGIONAL WEATHER ROUNDUP
NATIONAL WEATHER SERVICE DETROIT/PONTIAC MI
700 PM EDT THU OCT 19 2017

NOTE: "FAIR" INDICATES FEW OR NO CLOUDS BELOW 12,000 FEET WITH NO
SIGNIFICANT WEATHER AND/OR OBSTRUCTION TO VISIBILITY.

MIZ047>049-052>055-059>063-066>070-074>076-081>083-200000-
SOUTHEAST LOWER MICHIGAN

CITY           SKY/WX    TMP DP  RH WIND       PRES   REMARKS
ADRIAN         CLEAR     62  34  35 NW5       30.16R
ALMA           CLOUDY    60  22  23 W7        30.14R
ANN ARBOR      CLOUDY    58  33  39 W6        30.14R
BAD AXE        CLEAR     57  27  31 SW3       30.10R
CARO           CLEAR     58  25  28 SW6       30.11R
DETROIT CITY   CLEAR     64  29  26 W7        30.12R
DETROIT        CLOUDY    63  32  31 W8        30.14R
FLINT          CLOUDY    59  28  30 W8        30.14R
GROSSE ILE     CLEAR     64  34  32 W5        30.11S
HILLSDALE      CLEAR     57  28  33 W5        30.16S
HOWELL         CLOUDY    60  26  27 W6        30.15R

CITY           SKY/WX    TMP DP  RH WIND       PRES   REMARKS
JACKSON        CLOUDY    58  28  32 W5        30.15S
LAMBERTVILLE   CLEAR     65  36  34 CALM      30.14R
LANSING        CLOUDY    60  30  32 W7        30.16R
LAPEER         FAIR      59  28  31 W6        30.12R
MASON          CLOUDY    62  31  31 W6        30.15R
MONROE         CLEAR     64  34  32 W7        30.13R
MT. CLEMENS    MOCLDY    62  31  31 W5        30.10R
PONTIAC        CLOUDY    59  30  33 W7        30.12R
PORT HOPE        N/A     56  34  43 SW3       30.07R
PORT HURON     CLOUDY    63  30  29 W3        30.11S
TRI CITIES     CLEAR     57  27  31 W8        30.12R
MIDLAND        FAIR      60  26  28 W5        30.11R
TROY           PTCLDY    64  27  24 W6        30.14R
SAGINAW HB     CLOUDY    59  27  29 W7        30.11S
$$
MIZ043>046-050>051-056>058-064>065-071>073-077>080-200000-
SOUTHWEST LOWER MICHIGAN

CITY           SKY/WX    TMP DP  RH WIND       PRES   REMARKS
BATTLE CREEK   CLEAR     56  29  35 W6        30.17S
BENTON HARBOR  CLEAR     52  41  66 CALM      30.18S
BIG RAPIDS     CLOUDY    58  25  28 CALM      30.14R
COLDWATER      CLEAR     58  25  27 NW3       30.17S
FREMONT        FAIR      56  33  41 SW5       30.15R
HOLLAND        CLEAR     56  40  55 SW6       30.17S
GRAND RAPIDS   MOCLDY    56  35  45 W8        30.16R
IONIA          FAIR      58  32  37 W5        30.15R
KALAMAZOO      CLEAR     59  26  28 W5        30.18S
LUDINGTON      CLEAR     56  42  58 S5        30.12S
MARSHALL       CLEAR     54  28  36 W5        30.16S
MOUNT PLEASANT PTCLDY    62  26  25 W3        30.13R
MUSKEGON       PTCLDY    56  40  55 SW3       30.16R
SOUTH HAVEN    CLEAR     55  42  60 CALM      30.18S
$$
MIZ016>042-200000-
NORTHERN LOWER MICHIGAN

CITY           SKY/WX    TMP DP  RH WIND       PRES   REMARKS
ALPENA         CLEAR     58  31  35 W7        30.07R
BEAVER ISLAND  CLEAR     57  44  61 SW8G16    30.05S
BELLAIRE       CLEAR     55  38  54 CALM      30.09S
CADILLAC       CLOUDY    56  23  27 W6        30.12R
CHARLEVOIX     CLEAR     56  40  53 SW9       30.09S
FRANKFORT      CLEAR     59  42  53 S6        30.10S
GAYLORD        CLEAR     53  32  44 SW9       30.08R
GRAYLING       CLEAR     54  26  33 W6        30.11R
HARBOR SPRINGS CLEAR     57  38  48 SW9G18    30.06R
HOUGHTON LAKE  CLOUDY    57  33  40 W12       30.11R
MANISTEE       CLEAR     57  36  45 SW3       30.12R
OSCODA         PTCLDY    55  25  31 W7        30.06R
PELLSTON       CLEAR     57  38  48 W9        30.05R
ROGERS CITY    CLEAR     55  32  42 W6        30.06R
TRAVERSE CITY  MOCLDY    59  34  39 SW3       30.08S
$$
MIZ007>008-015-200000-
EASTERN UPPER MICHIGAN

CITY           SKY/WX    TMP DP  RH WIND       PRES   REMARKS
KINROSS        CLEAR     55  25  31 W6        30.02R
MACKINAC ISLAN CLEAR     58  43  57 W13G23    30.03R
NEWBERRY       CLOUDY    53  25  33 W3        30.02R
S. S. MARIE    CLOUDY    57  28  33 W15G21    30.00R
MUNISING         N/A     54  36  50 CALM      30.01S
$$
MIZ004>006-011>014-085-200000-
CENTRAL UPPER MICHIGAN

CITY           SKY/WX    TMP DP  RH WIND       PRES   REMARKS
MANISTIQUE     PTCLDY    54  45  70 SW5       30.03S
ESCANABA       CLEAR     57  38  48 S3        30.04R
MENOMINEE      CLEAR     63  33  32 SW5       30.07R
SAWYER-GWINN   CLEAR     59  28  31 S6        30.02S
$$
MIZ001>003-009>011-084-200000-
WESTERN UPPER MICHIGAN

CITY           SKY/WX    TMP DP  RH WIND       PRES   REMARKS
IRON MOUNTAIN  CLEAR     59  32  36 CALM      30.02S
HOUGHTON       MOCLDY    57  28  33 NW3       29.96S
COPPER HARBOR    N/A     57  26  30 VRB5      29.95S
IRONWOOD       PTCLDY    64  31  28 S6        29.97S
$$

ABBREVIATIONS USED IN REMARKS
   TC - TEMPERATURE IN CELSIUS
  WCI - WIND CHILL INDEX
   HX - HEAT INDEX
  VSB - VISIBILITY





USA.gov is the U.S. government's official web portal to all federal, state and local government web resources and services.